Home

.1..2..3.[4].5..6..7.
TV/SD-x264 - Release Name, 1899 releases = 115,21 GB
 Dr.Phil.2018.11.07.HDTV.x264-W4F W4F 2018-11-08
 The.Set.S01E02.HDTV.x264-CCT CCT 2018-11-08
 Mr.D.S08E02.WEBRip.x264-TBS TBS 2018-11-08
 Star.S03E06.WEB.x264-TBS TBS 2018-11-08
 NOVA.S45E09.Operation.Bridge.Rescue.HDTV.x264-W4F W4F 2018-11-08
 NOVA.S45E10.Volatile.Earth-Volcano.on.Fire.HDTV.x264-W4F W4F 2018-11-08
 RErideD.E10.WEB.x264-PLUTONiUM PLUTONiUM 2018-11-08
 UCL.2018.11.07.Group.H.Juventus.Vs.Manchester.United.HDTV.x264-PLUTONiUM PLUTONiUM 2018-11-08
 TRL.2018.11.07.HDTV.x264-W4F W4F 2018-11-08
 NOVA.S45E11.Volatile.Earth-Volcano.on.the.Brink.HDTV.x264-W4F W4F 2018-11-08
 NOVA.S45E12.Addiction.HDTV.x264-W4F W4F 2018-11-08
 Empire.2015.S05E06.WEB.x264-TBS TBS 2018-11-08
 Redrum.S02E19.HDTV.x264-W4F W4F 2018-11-08
 UNHhhh.S03E04.UNCENSORED.WEB.x264-SECRETOS SECRETOS 2018-11-08
 Tanked.S15E03.Demarcus.Cousins.and.a.Snake.Tank.WEB.x264-CAFFEiNE CAFFEiNE 2018-11-08
 Paul.O.Grady.For.the.Love.of.Dogs.S07E02.WEB.x264-KOMPOST KOMPOST 2018-11-08
 Shaun.Micallefs.Mad.as.Hell.S09E08.HDTV.x264-CCT CCT 2018-11-08
 The.Bold.and.the.Beautiful.S32E37.WEB.x264-W4F W4F 2018-11-08
 Storage.Wars.S12E01.The.Jenny.The.Baker.The.Prosthetics.Maker.HDTV.x264-CRiMSON CRiMSON 2018-11-08
 Storage.Wars.S12E01.WEB.h264-TBS TBS 2018-11-08
 Storage.Wars.S12E02.WEB.h264-TBS TBS 2018-11-08
 Storage.Wars.S12E02.Weekend.at.Barrys.HDTV.x264-CRiMSON CRiMSON 2018-11-08
 Total.Divas.S08E08.WEB.x264-TBS TBS 2018-11-08
 Rachael.Ray.2018.11.07.Entire.Thanksgiving.Menu.Covered.HDTV.x264-W4F W4F 2018-11-08
 How.To.Stay.Married.S01E01.HDTV.x264-FQM FQM 2018-11-08
 Property.Brothers.Buying.and.Selling.S08E10.Downsizing.to.a.Single-Story.WEBRip.x264-CAFFEiNE CAFFEiNE 2018-11-08
 All.American.S01E04.HDTV.x264-CRAVERS CRAVERS 2018-11-08
 American.Creed.2018.WEBRip.x264-KOMPOST KOMPOST 2018-11-08
 The.Project.2018.11.07.HDTV.x264-PLUTONiUM PLUTONiUM 2018-11-08
 Chicago.PD.S06E07.HDTV.x264-SVA SVA 2018-11-08
 James.Corden.2018.11.07.Noah.Centineo.WEB.x264-TBS TBS 2018-11-08
 The.Crocodile.Hunter.Best.Of.Steve.Irwin.S01E01.Steve.And.The.Dragon.HDTV.x264-CBFM CBFM 2018-11-08
 The.Nature.of.Things.2018.Spying.on.Animals.WEBRip.x264-KOMPOST KOMPOST 2018-11-08
 The.Nature.of.Things.2018.The.Memory.Mirage.WEB.h264-KOMPOST KOMPOST 2018-11-08
 Wheeler.Dealers.S16E06.2002.Corvette.C5.Z06.HDTV.x264-CRiMSON CRiMSON 2018-11-08
 Chicago.Med.S04E07.HDTV.x264-SVA SVA 2018-11-08
 The.Goldbergs.2013.S06E07.HDTV.x264-SVA SVA 2018-11-08
 Native.America.2018.Part.4.New.World.Rising.WEBRip.x264-KOMPOST KOMPOST 2018-11-08
 Guys.Grocery.Games.S19E07.Teen.Chefs.WEBRip.x264-CAFFEiNE CAFFEiNE 2018-11-08
 The.Princess.and.the.Pirate.1944.iNTERNAL.HDTV.x264-REGRET REGRET 2018-11-08
 Great.Performances.S46E01.Grammy.Salute.to.Music.Legends.WEB.h264-KOMPOST KOMPOST 2018-11-08
 Great.Performances.S46E02.An.American.in.Paris.The.Musical.WEBRip.x264-KOMPOST KOMPOST 2018-11-08
 The.Girl.from.Jones.Beach.1949.HDTV.x264-REGRET REGRET 2018-11-08
 Busy.Tonight.2018.11.07.Emily.Ratajkowski.WEB.x264-TBS TBS 2018-11-08
 Are.You.The.One.S07E14.WEB.x264-TBS TBS 2018-11-08
 Hope.in.the.Wild.S01E06.A.Flurry.of.Foxes.WEB.x264-KOMPOST KOMPOST 2018-11-08
 Geordie.Shore.S18E03.WEB.h264-KOMPOST KOMPOST 2018-11-08
 American.Horror.Story.S08E08.HDTV.x264-CRAVERS CRAVERS 2018-11-08
 American.Horror.Story.S08E09.HDTV.x264-CRAVERS CRAVERS 2018-11-08
 American.Horror.Story.S08E09.WEBRip.x264-TBS TBS 2018-11-08
 American.Housewife.S03E07.HDTV.x264-SVA SVA 2018-11-08
 The.Real.Housewives.of.Dallas.S03E13.WEB.x264-TBS TBS 2018-11-08
 The.Real.Housewives.of.New.Jersey.S09E01.WEB.x264-TBS TBS 2018-11-08
 A.Madea.Christmas.2011.WEBRip.x264-iNTENSO iNTENSO 2018-11-08
 Homicide.Hunter.S08E10.Primal.Instinct.WEBRip.x264-CAFFEiNE CAFFEiNE 2018-11-08
 Russias.Wild.Sea.S01E02.HDTV.x264-CBFM CBFM 2018-11-08
 Chicago.Fire.S07E07.HDTV.x264-SVA SVA 2018-11-08
 7.Little.Johnstons.S05E02.Love.Stings.WEB.x264-CAFFEiNE CAFFEiNE 2018-11-08
 South.Park.S22E06.HDTV.x264-SVA SVA 2018-11-08
 The.Cool.Kids.S01E06.HDTV.x264-KILLERS KILLERS 2018-11-08
 Jimmy.Fallon.2018.11.07.Eddie.Redmayne.WEB.x264-TBS TBS 2018-11-08
 The.Bachelorette.AU.S04E10.HDTV.x264-PLUTONiUM PLUTONiUM 2018-11-08
 Total.DramaRama.S01E12.HDTV.x264-W4F W4F 2018-11-08
 Jimmy.Kimmel.2018.11.06.Sacha.Baron.Cohen.WEB.x264-TBS TBS 2018-11-08
 Jimmy.Kimmel.2018.11.07.Melissa.McCarthy.WEB.x264-TBS TBS 2018-11-08
 Modern.Family.S10E07.HDTV.x264-SVA SVA 2018-11-08
 Criminal.Minds.S14E06.WEB.x264-TBS TBS 2018-11-08
 Coronation.Street.2018.11.07.Part.1.WEB.x264-KOMPOST KOMPOST 2018-11-08
 Coronation.Street.2018.11.07.Part.2.WEB.x264-KOMPOST KOMPOST 2018-11-08
 Monster.Encounters.S01E02.Man-Eating.Tigers.WEB.h264-CAFFEiNE CAFFEiNE 2018-11-08
 Stan.Against.Evil.S03E03.WEBRip.x264-TBS TBS 2018-11-08
 Stan.Against.Evil.S03E04.WEBRip.x264-TBS TBS 2018-11-08
 The.Apprentice.UK.S14E06.Airline.Advertising.HDTV.x264-PLUTONiUM PLUTONiUM 2018-11-08
 The.Apprentice.Youre.Fired.S14E06.Airline.Advertising.HDTV.x264-PLUTONiUM PLUTONiUM 2018-11-08
 Stephen.Colbert.2018.11.07.Chris.Pine.WEB.x264-TBS TBS 2018-11-08
 Psycho.Prom.Queen.2018.HDTV.x264-W4F W4F 2018-11-08
 Single.Parents.S01E07.HDTV.x264-SVA SVA 2018-11-08
 Burgers.Brew.and.Que.S04E15.Beastly.Burgers.WEBRip.x264-CAFFEiNE CAFFEiNE 2018-11-08
 Seth.Meyers.2018.11.07.Sarah.Jessica.Parker.WEB.x264-TBS TBS 2018-11-08
 Outrageous.Acts.of.Science.S10E04.This.Changes.Everything.WEBRip.x264-CAFFEiNE CAFFEiNE 2018-11-08
 Its.Always.Sunny.in.Philadelphia.S13E10.WEBRip.x264-TBS TBS 2018-11-08
 Crikey.Its.The.Irwins.S01E02.HDTV.x264-CBFM CBFM 2018-11-08
 Superwog.S01E05.HDTV.x264-CCT CCT 2018-11-08
 Survivor.S37E07.WEB.x264-TBS TBS 2018-11-08
 Watch.What.Happens.Live.2018.11.05.Vicki.Gunvalson.and.Leslie.Grossman.WEB.x264-TBS TBS 2018-11-08
 Dark.Heart.S01E03.HDTV.x264-MTB MTB 2018-11-08
 House.Hunters.International.S128E02.A.London.Loft.for.Lovebirds.WEBRip.x264-CAFFEiNE CAFFEiNE 2018-11-08
 House.Hunters.S150E09.Newlyweds.in.San.Franciscos.East.Bay.Burbs.WEB.x264-CAFFEiNE CAFFEiNE 2018-11-08
 House.Hunters.S154E01.Choosy.in.Chesapeake.WEB.x264-CAFFEiNE CAFFEiNE 2018-11-08
 House.Hunters.S154E05.Conflicting.Wish.Lists.in.Florida.WEB.x264-CAFFEiNE CAFFEiNE 2018-11-08
 House.Hunters.S156E08.Contemporary.vs.Vintage.in.Indianapolis.WEB.x264-CAFFEiNE CAFFEiNE 2018-11-08
 House.Hunters.S157E04.Basement.Blues.in.Knoxville.WEB.x264-CAFFEiNE CAFFEiNE 2018-11-08
 House.Hunters.S161E08.Making.it.Happen.in.Hampton.Beach.WEB.x264-CAFFEiNE CAFFEiNE 2018-11-08
 House.Hunters.S161E10.Going.For.It.In.Gulfport.WEB.x264-CAFFEiNE CAFFEiNE 2018-11-08
 Run.With.The.Wind.E06.WEB.x264-PLUTONiUM PLUTONiUM 2018-11-08
 Heat.Lightning.1934.HDTV.x264-REGRET REGRET 2018-11-08
 Greys.Anatomy.S15E07.HDTV.x264-KILLERS KILLERS 2018-11-08
 Tomorrow.Tonight.S01E02.HDTV.x264-CCT CCT 2018-11-08
 The.Bureau.Of.Magical.Things.S01E02.Magic.In.The.Air.HDTV.x264-PLUTONiUM PLUTONiUM 2018-11-08
 The.Bureau.Of.Magical.Things.S01E03.All.The.Worlds.A.Stage.HDTV.x264-PLUTONiUM PLUTONiUM 2018-11-08
 Garage.Squad.S05E10.Dually.Concerned.WEBRip.x264-CAFFEiNE CAFFEiNE 2018-11-08
 The.Bisexual.S01E05.HDTV.x264-MTB MTB 2018-11-08
 Days.of.our.Lives.S54E33.WEB.x264-W4F W4F 2018-11-08
 Lawrence.Welks-TV.Treasures.2007.PDTV.x264-W4F W4F 2018-11-08
 Judge.Judy.S23E60.Wedding.Dress.Distress.Pregnant.and.Panicked.iNTERNAL.HDTV.x264-W4F W4F 2018-11-08
 Judge.Judy.S23E62.Pet.Sitter.Kills.Dog.HDTV.x264-W4F W4F 2018-11-08
 Judge.Judy.S23E63.Woman.Left.Dying.on.Bathroom.Floor.iNTERNAL.HDTV.x264-W4F W4F 2018-11-08
 The.1990s-The.Deadliest.Decade.S01E01.Lone.Star.WEBRip.x264-CAFFEiNE CAFFEiNE 2018-11-07
 Emmerdale.1918.Part.1.WEB.x264-KOMPOST KOMPOST 2018-11-07
 Emmerdale.1918.Part.2.WEB.x264-KOMPOST KOMPOST 2018-11-07
 Emmerdale.1918.Part.3.WEB.x264-KOMPOST KOMPOST 2018-11-07
 Emmerdale.1918.Part.4.WEB.x264-KOMPOST KOMPOST 2018-11-07
 Emmerdale.1918.Part.5.WEB.x264-KOMPOST KOMPOST 2018-11-07
 Emmerdale.1918.Part.6.WEB.x264-KOMPOST KOMPOST 2018-11-07
 TMZ.on.TV.2018.11.05.WEB.x264-TBS TBS 2018-11-07
 Emmerdale.2018.11.06.WEB.x264-KOMPOST KOMPOST 2018-11-07
 Lets.Make.A.Deal.2009.S10E36.WEB.x264-W4F W4F 2018-11-07
 The.Haves.and.the.Have.Nots.S05E33.WEBRip.x264-TBS TBS 2018-11-07
 Pointless.AU.S01E78.WEB.h264-KOMPOST KOMPOST 2018-11-07
 Ambulance.Australia.S01E04.HDTV.x264-CCT CCT 2018-11-07
 Ex.on.the.Beach.S09E12.WEB.h264-KOMPOST KOMPOST 2018-11-07
 The.Guest.Book.S02E04.WEBRip.x264-TBS TBS 2018-11-07
 This.Hour.Has.22.Minutes.S26E07.Hot.Canadian.Night.WEBRip.x264-KOMPOST KOMPOST 2018-11-07
 Eli.Roths.History.of.Horror.S01E05.HDTV.x264-aAF aAF 2018-11-07
 The.Price.Is.Right.S47E36.WEB.x264-W4F W4F 2018-11-07
 The.Match.King.1932.HDTV.x264-REGRET REGRET 2018-11-07
 Caribbean.Life.S13E04.Tackling.a.Roatan.Fixer.Upper.HDTV.x264-CRiMSON CRiMSON 2018-11-07
 Caribbean.Life.S13E05.Exploring.Reefs.on.Utila.HDTV.x264-CRiMSON CRiMSON 2018-11-07
 Caribbean.Life.S13E06.Island.Dream.in.Bocas.Del.Toro.Panama.HDTV.x264-CRiMSON CRiMSON 2018-11-07
 Food.Fact.or.Fiction.S04E04.Wicked.Good.HDTV.x264-CRiMSON CRiMSON 2018-11-07
 Star.Wars.Resistance.S01E01.HDTV.x264-W4F W4F 2018-11-07
 Star.Wars.Resistance.S01E02.HDTV.x264-W4F W4F 2018-11-07
 Star.Wars.Resistance.S01E03.HDTV.x264-W4F W4F 2018-11-07
 Watergate.S01E01.WEB.h264-CookieMonster CookieMo... 2018-11-07
 Watergate.S01E03.WEB.h264-CookieMonster CookieMo... 2018-11-07
 Watergate.S01E04.WEB.h264-CookieMonster CookieMo... 2018-11-07
 Watergate.S01E05.WEB.h264-CookieMonster CookieMo... 2018-11-07
 Watergate.S01E06.WEB.h264-CookieMonster CookieMo... 2018-11-07
 The.Purge.S01E10.WEB.x264-TBS TBS 2018-11-07
 The.Force.S02E04.HDTV.x264-PLUTONiUM PLUTONiUM 2018-11-07
 Hard.Quiz.S03E16.WEB.x264-SHADOWS SHADOWS 2018-11-07
 The.Daily.Show.2018.11.06.Jamil.Smith.WEB.x264-TBS TBS 2018-11-07
 FLCL.S03E01.DUBBED.HDTV.x264-W4F W4F 2018-11-07
 Dr.Phil.2018.10.05.HDTV.x264-W4F W4F 2018-11-07
 Dr.Phil.2018.10.08.HDTV.x264-W4F W4F 2018-11-07
 Dr.Phil.2018.10.09.HDTV.x264-W4F W4F 2018-11-07
 Dr.Phil.2018.10.10.HDTV.x264-W4F W4F 2018-11-07
 Dr.Phil.2018.10.11.HDTV.x264-W4F W4F 2018-11-07
 Dr.Phil.2018.10.12.HDTV.x264-W4F W4F 2018-11-07
 Dr.Phil.2018.10.15.HDTV.x264-W4F W4F 2018-11-07
 Dr.Phil.2018.10.16.HDTV.x264-W4F W4F 2018-11-07
 Dr.Phil.2018.10.17.HDTV.x264-W4F W4F 2018-11-07
 Dr.Phil.2018.10.18.HDTV.x264-W4F W4F 2018-11-07
 TRL.2018.10.10.HDTV.x264-W4F W4F 2018-11-07
 TRL.2018.10.11.HDTV.x264-W4F W4F 2018-11-07
 TRL.2018.10.17.HDTV.x264-W4F W4F 2018-11-07
 TRL.2018.10.19.HDTV.x264-W4F W4F 2018-11-07
 EPL.2018.11.05.Huddersfield.Town.vs.Fulham.720p.WEB.h264-VERUM VERUM 2018-11-07
 UCL.2018.11.07.Group.A.Atletico.Madrid.vs.Borussia.Dortmund.h264.WEB-VERUM VERUM 2018-11-07
 UCL.2018.11.07.Group.C.Napoli.vs.Paris.Saint.Germain.h264.WEB-VERUM VERUM 2018-11-07
 UCL.2018.11.07.Group.D.FC.Porto.vs.Locomotiv.Moscow.h264.WEB-VERUM VERUM 2018-11-07
 Chopped.S39E15.Champs.Throwdown-Finale.WEBRip.x264-CAFFEiNE CAFFEiNE 2018-11-07
 Holiday.Baking.Championship.S05E01.Holiday.Essentials.HDTV.x264-W4F W4F 2018-11-07
 Impractical.Jokers.S07E00.Hits.Errors.and.Balls.HDTV.x264-W4F W4F 2018-11-07
 Big.Cat.Tales.S01E03.Battle.on.the.Plains.HDTV.x264-CRiMSON CRiMSON 2018-11-07
 Shaun.Micallefs.MAD.AS.HELL.S09E08.WEB.x264-SHADOWS SHADOWS 2018-11-07
 Pod.Save.America.S01E04.HDTV.x264-aAF aAF 2018-11-07
 90.Day.Fiance.S06E02.Young.and.Restless.REAL.HDTV.x264-CRiMSON CRiMSON 2018-11-07
 The.Bold.and.the.Beautiful.S32E36.WEB.x264-W4F W4F 2018-11-07
 Lethal.Weapon.S03E06.HDTV.x264-CRAVERS CRAVERS 2018-11-07
 Lethal.Weapon.S03E06.WEB.x264-TBS TBS 2018-11-07
 Rachael.Ray.2018.11.06.Katy.Mixon.HDTV.x264-W4F W4F 2018-11-07
 Pride.of.Britain.Awards.2018.WEB.x264-KOMPOST KOMPOST 2018-11-07
 Mayans.M.C.S01E10.WEBRip.x264-TBS TBS 2018-11-07
 Counting.Cars.S08E16.WEB.h264-TBS TBS 2018-11-07
 The.Project.2018.11.06.HDTV.x264-PLUTONiUM PLUTONiUM 2018-11-07
 The.Gifted.S02E06.HDTV.x264-CRAVERS CRAVERS 2018-11-07
 The.Gifted.S02E06.WEB.x264-TBS TBS 2018-11-07
 Blind.Date.AU.S01E04.HDTV.x264-CCT CCT 2018-11-07
 The.Little.Couple.S13E08.The.Toilet.Exploded.WEBRip.x264-CAFFEiNE CAFFEiNE 2018-11-07
 Svengoolie.On.Me-TV.S07E07.Gargoyles.DSR.x264-W4F W4F 2018-11-07
 9-1-1.S02E08.HDTV.x264-CRAVERS CRAVERS 2018-11-07
 The.Jim.Jefferies.Show.S02E28.WEB.x264-TBS TBS 2018-11-07
 The.Challenge.S32E18.Final.Reckoning.Its.Always.Sunny.in.South.Africa.HDTV.x264-CRiMSON CRiMSON 2018-11-07
 Big.Brothers.Bit.On.The.Side.S17E37.HDTV.x264-PLUTONiUM PLUTONiUM 2018-11-07
 Transformers.Cyberverse.S01E07.HDTV.x264-W4F W4F 2018-11-07
 Transformers.Cyberverse.S01E08.HDTV.x264-W4F W4F 2018-11-07
 Wheel.Of.Fortune.2018.11.05.Americas.Game.1.iNTERNAL.HDTV.x264-W4F W4F 2018-11-07
 Wheel.Of.Fortune.2018.11.06.Americas.Game.2.HDTV.x264-W4F W4F 2018-11-07
 Busy.Tonight.2018.11.05.John.Stamos.WEB.x264-TBS TBS 2018-11-07
 Busy.Tonight.2018.11.06.Olivia.Munn.WEB.x264-TBS TBS 2018-11-07
 Rise.of.the.Teenage.Mutant.Ninja.Turtles.S01E03a.HDTV.x264-W4F W4F 2018-11-07
 Rise.of.the.Teenage.Mutant.Ninja.Turtles.S01E03b.HDTV.x264-W4F W4F 2018-11-07
 Rise.of.the.Teenage.Mutant.Ninja.Turtles.S01E04a.HDTV.x264-W4F W4F 2018-11-07
 Rise.of.the.Teenage.Mutant.Ninja.Turtles.S01E04b.HDTV.x264-W4F W4F 2018-11-07
 Rise.of.the.Teenage.Mutant.Ninja.Turtles.S01E05a.HDTV.x264-W4F W4F 2018-11-07
 Rise.of.the.Teenage.Mutant.Ninja.Turtles.S01E05b.HDTV.x264-W4F W4F 2018-11-07
 Rise.of.the.Teenage.Mutant.Ninja.Turtles.S01E06a.HDTV.x264-W4F W4F 2018-11-07
 Rise.of.the.Teenage.Mutant.Ninja.Turtles.S01E06b.HDTV.x264-W4F W4F 2018-11-07
 The.Real.Housewives.of.Cheshire.S08E09.WEB.x264-KOMPOST KOMPOST 2018-11-07
 Highway.Thru.Hell.S07E10.HDTV.x264-aAF aAF 2018-11-07
 Bitchin.Rides.S05E05.Fiberglass.Fiberglass.and.More.Fiberglass.HDTV.x264-CRiMSON CRiMSON 2018-11-07
 Bahamas.Life.S02E05.Beach.Bum.Dreams.in.Green.Turtle.Cay.HDTV.x264-CRiMSON CRiMSON 2018-11-07
 See.No.Evil.S04E02.HDTV.x264-W4F W4F 2018-11-07
 See.No.Evil.S04E03.HDTV.x264-W4F W4F 2018-11-07
 See.No.Evil.S04E04.HDTV.x264-W4F W4F 2018-11-07
 See.No.Evil.S04E05.HDTV.x264-W4F W4F 2018-11-07
 See.No.Evil.S04E06.HDTV.x264-W4F W4F 2018-11-07
 Prescription.for.Danger.2018.HDTV.x264-CRiMSON CRiMSON 2018-11-07
 Below.Deck.S06E06.Get.Better.or.Go.Home.HDTV.x264-CRiMSON CRiMSON 2018-11-07
 The.Bachelorette.AU.S04E09.HDTV.x264-PLUTONiUM PLUTONiUM 2018-11-07
 Brake.Room.S01E11.Capt.Sean.Dwyer.vs.RJ.Anderson.WEB.x264-CAFFEiNE CAFFEiNE 2018-11-07
 Brake.Room.S01E12.Erik.Jones.vs.Matt.DAndria.WEB.x264-CAFFEiNE CAFFEiNE 2018-11-07
 The.Modern.Royals.Tour.Down.Under.2018.HDTV.x264-CBFM CBFM 2018-11-07
 Long.Island.Medium.S13E05.The.Reunion.HDTV.x264-CRiMSON CRiMSON 2018-11-07
 Long.Island.Medium.S13E05.The.Reunion.WEBRip.x264-KOMPOST KOMPOST 2018-11-07
 Still.Standing.2015.S04E08.Tyendinaga.Mohawk.Territory.WEBRip.x264-KOMPOST KOMPOST 2018-11-07
 Scariest.Night.Of.My.Life.S01E09.Scratching.the.Surface.Kill.Jill.HDTV.x264-W4F W4F 2018-11-07
 Welcome.to.Waverly.S01E04.WEB.x264-TBS TBS 2018-11-07
 Family.Food.Fight.AU.S02E05.HDTV.x264-CCT CCT 2018-11-07
 Family.Food.Fight.AU.S02E06.HDTV.x264-PLUTONiUM PLUTONiUM 2018-11-07
 Stephen.Colbert.2018.11.06.John.Heilemann.WEB.x264-TBS TBS 2018-11-07
 Playing.For.Keeps.S01E08.HDTV.x264-FQM FQM 2018-11-07
 Flipping.Out.S11E08.WEB.x264-TBS TBS 2018-11-07
 Anne.of.Green.Gables.1934.HDTV.x264-REGRET REGRET 2018-11-07
 Live.PD.Presents.Women.on.Patrol.S01E14.HDTV.x264-W4F W4F 2018-11-07
 Live.PD.Presents.Women.on.Patrol.S01E15.HDTV.x264-W4F W4F 2018-11-07
 Live.PD.Presents.Women.on.Patrol.S01E17.HDTV.x264-W4F W4F 2018-11-07
 Live.PD.Presents.Women.on.Patrol.S01E18.HDTV.x264-W4F W4F 2018-11-07
 Live.PD.Presents.Women.on.Patrol.S01E19.HDTV.x264-W4F W4F 2018-11-07
 Live.PD.Presents.Women.on.Patrol.S01E20.HDTV.x264-W4F W4F 2018-11-07
 Live.PD.Presents.Women.on.Patrol.S01E21.HDTV.x264-W4F W4F 2018-11-07
 Live.PD.Presents.Women.on.Patrol.S01E24.HDTV.x264-W4F W4F 2018-11-07
 Live.PD.Presents.Women.on.Patrol.S01E25.HDTV.x264-W4F W4F 2018-11-07
 Live.PD.Presents.Women.on.Patrol.S01E26.HDTV.x264-W4F W4F 2018-11-07
 Live.PD.Presents.Women.on.Patrol.S01E27.HDTV.x264-W4F W4F 2018-11-07
 Live.PD.Presents.Women.on.Patrol.S01E28.HDTV.x264-W4F W4F 2018-11-07
 Seth.Meyers.2018.11.06.Billy.Eichner.WEB.x264-TBS TBS 2018-11-07
 The.Circus.S03E14.HDTV.x264-aAF aAF 2018-11-07
 Informer.S01E04.HDTV.x264-MTB MTB 2018-11-07
 Married.at.First.Sight.Happily.Ever.After.S01E02.WEB.h264-TBS TBS 2018-11-07
 Married.at.First.Sight.Honeymoon.Island.S01E03.WEB.h264-TBS TBS 2018-11-07
 Full.Frontal.With.Samantha.Bee.S03E27.WEB.h264-TBS TBS 2018-11-07
 House.Hunters.International.S130E04.Rolling.on.the.Riviera.Maya.WEBRip.x264-CAFFEiNE CAFFEiNE 2018-11-07
 Ultimate.Thanksgiving.Challenge.S01E01.Theyre.Called.Classics.for.a.Reason.HDTV.x264-W4F W4F 2018-11-07
 Tomorrow.Tonight.S01E02.WEB.x264-SHADOWS SHADOWS 2018-11-07
 Deadly.Matrimony.2018.HDTV.x264-CRiMSON CRiMSON 2018-11-07
 The.Bureau.Of.Magical.Things.S01E01.A.Magical.Mishap.HDTV.x264-PLUTONiUM PLUTONiUM 2018-11-07
 Days.of.our.Lives.S54E32.WEB.x264-W4F W4F 2018-11-07
 Explore.TV.2018.Korea.Part.1.HDTV.x264-PLUTONiUM PLUTONiUM 2018-11-07
 Baroness.Von.Sketch.Show.S03E07.WEBRip.x264-KOMPOST KOMPOST 2018-11-07
 Beat.Bobby.Flay.S11E05.The.Grid.Iron.Chef.HDTV.x264-W4F W4F 2018-11-07
 Holby.City.S20E45.HDTV.x264-MTB MTB 2018-11-07
 Judge.Judy.S23E61.I.Need.You.to.Love.My.Lamb.Playing.the.Ride.Share.Game.HDTV.x264-W4F W4F 2018-11-07
 Zombie.At.17.2018.HDTV.x264-W4F W4F 2018-11-06
 TMZ.on.TV.2018.11.02.WEB.x264-TBS TBS 2018-11-06
 Emmerdale.2018.11.05.WEB.x264-KOMPOST KOMPOST 2018-11-06
 Lets.Make.A.Deal.2009.S10E35.WEB.x264-W4F W4F 2018-11-06
 Pointless.AU.S01E77.WEB.h264-KOMPOST KOMPOST 2018-11-06
 Ambulance.Australia.S01E04.WEB.H264-SHADOWS SHADOWS 2018-11-06
 Long.Lost.Family.US.S05E05.Feelings.of.Abandonment.WEB.x264-CAFFEiNE CAFFEiNE 2018-11-06
 That.Time.I.Got.Reincarnated.As.A.Slime.E06.WEB.x264-PLUTONiUM PLUTONiUM 2018-11-06
 The.Price.Is.Right.S47E35.WEB.x264-W4F W4F 2018-11-06
 Christmas.Joy.2018.HDTV.x264-W4F W4F 2018-11-06
 Bride.And.Prejudice.AU.S02E05.WEB.H264-SHADOWS SHADOWS 2018-11-06
 Bull.2016.S03E07.HDTV.x264-SVA SVA 2018-11-06
 The.Voice.S15E13.WEB.x264-TBS TBS 2018-11-06
 The.Daily.Show.2018.11.05.Cory.Booker.and.John.Kasich.EXTENDED.WEB.x264-TBS TBS 2018-11-06
 Last.Week.Tonight.With.John.Oliver.S05E28.HDTV.x264-aAF aAF 2018-11-06
 Shades.of.Winter.BETWEEN.2016.WEBRip.x264-13 13 2018-11-06
 MotoGP.2018.Malaysia.REPACK.WEB.x264-VERUM VERUM 2018-11-06
 Scaled.S01E06.Monkey-Tailed.Skink.Adventure.WEBRip.x264-CAFFEiNE CAFFEiNE 2018-11-06
 Snapped.S24E11.Deborah.Pieringer.WEB.x264-WEBSTER WEBSTER 2018-11-06
 Holiday.Baking.Championship.S05E01.Holiday.Essentials.WEBRip.x264-CAFFEiNE CAFFEiNE 2018-11-06
 The.Bold.and.the.Beautiful.S32E35.WEB.x264-W4F W4F 2018-11-06
 Southern.At.Heart.S04E11.PbJ.Came.to.Play.HDTV.x264-W4F W4F 2018-11-06
 Salvage.Dawgs.S09E11.Return.to.K-Town.WEB.h264-CAFFEiNE CAFFEiNE 2018-11-06
 Rachael.Ray.2018.11.05.David.Muir.HDTV.x264-W4F W4F 2018-11-06
 Mythical.Beasts.S01E04.Revenge.of.the.Cyclops.WEBRip.x264-CAFFEiNE CAFFEiNE 2018-11-06
 The.Neighborhood.S01E06.HDTV.x264-SVA SVA 2018-11-06
 Criminal.Confessions.S02E05.WEB.x264-WEBSTER WEBSTER 2018-11-06
 Barefoot.Contessa.S25E03.Cook.Like.a.Pro.Salads.for.Four.Seasons.REAL.HDTV.x264-W4F W4F 2018-11-06
 The.Project.2018.11.05.HDTV.x264-PLUTONiUM PLUTONiUM 2018-11-06
 I.Feel.Bad.S01E07.HDTV.x264-CRAVERS CRAVERS 2018-11-06
 Unexpected.S02E15.Tell.All.WEB.x264-CAFFEiNE CAFFEiNE 2018-11-06
 Into.The.Dark.2018.S01E02.WEBRip.x264-TBS TBS 2018-11-06
 James.Corden.2018.11.05.Aaron.Taylor.Johnson.WEB.x264-TBS TBS 2018-11-06
 The.Good.Doctor.S02E06.WEB.H264-MEMENTO MEMENTO 2018-11-06
 DCs.Legends.of.Tomorrow.S04E03.HDTV.x264-KILLERS KILLERS 2018-11-06
 Alaska.The.Last.Frontier.S08E00.Trials.And.Tribulations.HDTV.x264-W4F W4F 2018-11-06
 Alaska.The.Last.Frontier.S08E05.Range.Danger.HDTV.x264-W4F W4F 2018-11-06
 Arrow.S07E04.HDTV.x264-SVA SVA 2018-11-06
 9-1-1.S02E08.WEB.x264-TBS TBS 2018-11-06
 The.Resident.S02E07.HDTV.x264-CRAVERS CRAVERS 2018-11-06
 The.Resident.S02E07.WEB.x264-TBS TBS 2018-11-06
 Big.Brother.UK.S19E45.Goodbye.Big.Brother.The.Live.Final.HDTV.x264-PLUTONiUM PLUTONiUM 2018-11-06
 Happy.Together.2018.S01E06.HDTV.x264-SVA SVA 2018-11-06
 Doing.Money.2018.HDTV.x264-KETTLE KETTLE 2018-11-06
 Hawaii.Life.S12E05.Connected.to.Nature.on.Maui.WEBRip.x264-CAFFEiNE CAFFEiNE 2018-11-06
 Hawaii.Life.S12E06.Yacht.Life.to.the.Big.Island.WEBRip.x264-CAFFEiNE CAFFEiNE 2018-11-06
.1..2..3.[4].5..6..7.
Work time: 1.02404 seconds

Contact: 0day@bk.ru

Рейтинг@Mail.ru